Date String (YYYY-MM-DD hh:mm:ss) UTC,Instrument flags,Ambient pressure (hPa),Sample flow (lpm),Bypass flow (lpm),Sample temperature (°C),Ambient temperature (°C),ASC tube jacket temperature (°C),LED temperature (°C),Box temperature (°C),Sample RH (%),Span deviation,Mass concentration (μg/m³),Mass concentration (μg/m³),Mass concentration (μg/m³)
DateTimeUTC,F1_M11,P_M11,Q1_M11,Q2_M11,T1_M11,T2_M11,T3_M11,T4_M11,T5_M11,U1_M11,ZSPAN_M11,X0_M11,X2_M11,X1_M11
2022-12-03 12:00:00,,0831.5,4.99,0.00,22.2,21.9,00.0,31.0,24.1,07.7,0000.0,0007.35,0002.90,0001.78
2022-12-03 12:01:00,,0831.4,5.00,0.00,22.2,21.5,00.0,31.0,24.0,07.7,0000.0,0007.18,0002.87,0001.76
2022-12-03 12:02:00,,0831.4,5.01,0.00,22.1,21.2,00.0,31.0,23.9,07.7,0000.0,0006.98,0002.80,0001.74
2022-12-03 12:03:00,,0831.5,5.00,0.00,22.1,20.9,00.0,31.0,23.8,07.8,0000.0,0006.57,0002.76,0001.73
2022-12-03 12:04:00,,0831.5,5.00,0.00,22.0,20.8,00.0,31.0,23.7,07.8,0000.0,0006.43,0002.74,0001.74
2022-12-03 12:05:00,,0831.5,5.00,0.00,22.0,20.6,00.0,31.0,23.7,07.8,0000.0,0007.06,0002.66,0001.73
2022-12-03 12:06:00,,0831.5,5.00,0.00,22.0,20.5,00.0,31.0,23.7,07.8,0000.0,0008.87,0002.72,0001.74
2022-12-03 12:07:00,,0831.4,4.99,0.00,22.0,20.5,00.0,31.0,23.7,07.8,0000.0,0010.32,0002.73,0001.75
2022-12-03 12:08:00,,0831.5,5.00,0.00,22.0,21.0,00.0,30.9,23.8,07.8,0000.0,0010.28,0002.71,0001.73
2022-12-03 12:09:00,,0831.5,5.02,0.00,22.1,21.9,00.0,30.9,24.0,07.8,0000.0,0009.91,0002.60,0001.70
2022-12-03 12:10:00,,0831.5,4.99,0.00,22.2,22.1,00.0,30.9,24.1,07.8,0000.0,0009.97,0002.62,0001.70
2022-12-03 12:11:00,,0831.5,5.00,0.00,22.2,21.7,00.0,31.0,24.0,07.8,0000.0,0010.85,0002.64,0001.68
2022-12-03 12:12:00,,0831.6,5.01,0.00,22.1,21.4,00.0,31.0,23.9,07.8,0000.0,0011.13,0002.64,0001.67
2022-12-03 12:13:00,,0831.7,5.00,0.00,22.1,21.1,00.0,31.0,23.9,07.7,0000.0,0011.04,0002.62,0001.65
2022-12-03 12:14:00,,0831.6,5.00,0.00,22.1,21.0,00.0,31.0,23.9,07.7,0000.0,0011.02,0002.61,0001.64
2022-12-03 12:15:00,,0831.5,4.99,0.00,22.1,20.8,00.0,31.0,23.8,07.7,0000.0,0010.96,0002.58,0001.63
2022-12-03 12:16:00,,0831.5,5.00,0.00,22.1,20.7,00.0,31.0,23.8,07.7,0000.0,0010.61,0002.58,0001.63
2022-12-03 12:17:00,,0831.6,5.00,0.00,22.0,20.6,00.0,31.0,23.8,07.8,0000.0,0009.65,0002.51,0001.61
2022-12-03 12:18:00,,0831.6,5.01,0.00,22.0,20.5,00.0,31.0,23.8,07.8,0000.0,0007.85,0002.49,0001.59
2022-12-03 12:19:00,,0831.6,5.01,0.00,22.0,20.5,00.0,31.0,23.8,07.7,0000.0,0008.16,0002.56,0001.60
2022-12-03 12:20:00,,0831.6,5.00,0.00,22.0,21.2,00.0,30.9,23.8,07.7,0000.0,0008.37,0002.61,0001.61
2022-12-03 12:21:00,,0831.6,5.00,0.00,22.1,22.1,00.0,30.9,24.1,07.7,0000.0,0008.40,0002.54,0001.61
2022-12-03 12:22:00,,0831.6,5.00,0.00,22.2,22.1,00.0,31.0,24.1,07.7,0000.0,0008.02,0002.53,0001.61
2022-12-03 12:23:00,,0831.6,4.99,0.00,22.2,21.8,00.0,31.0,24.1,07.6,0000.0,0007.76,0002.53,0001.61
2022-12-03 12:24:00,,0831.5,5.00,0.00,22.2,21.4,00.0,31.0,24.0,07.6,0000.0,0007.71,0002.50,0001.62
2022-12-03 12:25:00,,0831.5,5.00,0.00,22.2,21.2,00.0,31.0,23.9,07.6,0000.0,0008.21,0002.43,0001.62
2022-12-03 12:26:00,,0831.5,5.00,0.00,22.1,21.0,00.0,31.0,23.9,07.7,0000.0,0009.14,0002.46,0001.62
2022-12-03 12:27:00,,0831.6,5.00,0.00,22.1,20.9,00.0,31.0,23.9,07.7,0000.0,0009.07,0002.44,0001.60
2022-12-03 12:28:00,,0831.5,5.00,0.00,22.1,20.8,00.0,31.0,23.9,07.7,0000.0,0009.13,0002.42,0001.60
2022-12-03 12:29:00,,0831.5,5.00,0.00,22.1,20.7,00.0,31.0,23.8,07.7,0000.0,0009.12,0002.37,0001.60
2022-12-03 12:30:00,,0831.5,5.00,0.00,22.1,20.6,00.0,31.0,23.8,07.7,0000.0,0008.75,0002.30,0001.60
2022-12-03 12:31:00,,0831.5,5.00,0.00,22.0,20.5,00.0,31.0,23.8,07.7,0000.0,0009.05,0002.34,0001.60
2022-12-03 12:32:00,,0831.5,5.00,0.00,22.0,20.7,00.0,31.0,23.8,07.7,0000.0,0009.19,0002.45,0001.60
2022-12-03 12:33:00,,0831.4,5.01,0.00,22.1,21.5,00.0,30.9,23.9,07.7,0000.0,0008.83,0002.51,0001.60
2022-12-03 12:34:00,,0831.5,4.99,0.00,22.2,22.3,00.0,30.9,24.1,07.6,0000.0,0008.96,0002.50,0001.59
2022-12-03 12:35:00,,0831.5,4.99,0.00,22.2,22.1,00.0,31.0,24.2,07.6,0000.0,0009.09,0002.54,0001.58
2022-12-03 12:36:00,,0831.4,4.99,0.00,22.2,21.7,00.0,31.0,24.1,07.6,0000.0,0008.91,0002.57,0001.57
2022-12-03 12:37:00,,0831.4,5.00,0.00,22.2,21.4,00.0,31.0,24.0,07.6,0000.0,0008.34,0002.59,0001.57
2022-12-03 12:38:00,,0831.4,5.02,0.00,22.2,21.1,00.0,31.1,23.9,07.6,0000.0,0008.51,0002.61,0001.58
2022-12-03 12:39:00,,0831.4,5.00,0.00,22.2,21.0,00.0,31.1,23.9,07.6,0000.0,0009.45,0002.73,0001.62
2022-12-03 12:40:00,,0831.4,5.00,0.00,22.1,20.8,00.0,31.1,23.9,07.6,0000.0,0009.18,0002.83,0001.65
2022-12-03 12:41:00,,0831.4,4.99,0.00,22.1,20.7,00.0,31.1,23.9,07.6,0000.0,0009.39,0002.89,0001.66
2022-12-03 12:42:00,,0831.4,4.99,0.00,22.1,20.6,00.0,31.0,23.8,07.6,0000.0,0009.59,0002.93,0001.67
2022-12-03 12:43:00,,0831.5,5.00,0.00,22.1,20.6,00.0,31.0,23.8,07.6,0000.0,0009.33,0002.93,0001.68
2022-12-03 12:44:00,,0831.4,5.01,0.00,22.1,21.4,00.0,31.0,24.0,07.6,0000.0,0009.09,0002.86,0001.69
2022-12-03 12:45:00,,0831.4,5.01,0.00,22.2,22.2,00.0,30.9,24.1,07.6,0000.0,0008.89,0002.84,0001.71
2022-12-03 12:46:00,,0831.4,4.99,0.00,22.3,22.2,00.0,31.0,24.2,07.5,0000.0,0008.83,0002.85,0001.73
2022-12-03 12:47:00,,0831.5,4.99,0.00,22.3,21.8,00.0,31.0,24.2,07.6,0000.0,0008.82,0002.88,0001.77
2022-12-03 12:48:00,,0831.4,4.99,0.00,22.2,21.5,00.0,31.1,24.1,07.6,0000.0,0008.66,0002.89,0001.80
2022-12-03 12:49:00,,0831.4,5.01,0.00,22.2,21.2,00.0,31.1,24.0,07.6,0000.0,0008.42,0002.86,0001.81
2022-12-03 12:50:00,,0831.5,5.00,0.00,22.2,21.1,00.0,31.1,23.9,07.6,0000.0,0007.64,0002.78,0001.79
2022-12-03 12:51:00,,0831.5,5.00,0.00,22.2,20.9,00.0,31.1,23.9,07.6,0000.0,0007.34,0002.71,0001.77
2022-12-03 12:52:00,,0831.4,5.01,0.00,22.2,20.7,00.0,31.1,23.9,07.6,0000.0,0007.18,0002.70,0001.76
2022-12-03 12:53:00,,0831.2,5.01,0.00,22.1,20.5,00.0,31.1,23.8,07.6,0000.0,0007.49,0002.68,0001.76
2022-12-03 12:54:00,,0831.4,4.99,0.00,22.1,20.4,00.0,31.1,23.7,07.7,0000.0,0007.34,0002.59,0001.77
2022-12-03 12:55:00,,0831.5,4.99,0.00,22.0,20.2,00.0,31.0,23.7,07.7,0000.0,0007.57,0002.58,0001.77
2022-12-03 12:56:00,,0831.6,5.02,0.00,22.0,20.8,00.0,31.0,23.7,07.7,0000.0,0007.78,0002.62,0001.77
2022-12-03 12:57:00,,0831.5,5.00,0.00,22.1,21.7,00.0,30.9,23.9,07.7,0000.0,0007.90,0002.57,0001.77
2022-12-03 12:58:00,,0831.5,5.00,0.00,22.2,22.0,00.0,31.0,24.1,07.6,0000.0,0008.48,0002.57,0001.76
2022-12-03 12:59:00,,0831.6,4.99,0.00,22.2,21.5,00.0,31.0,24.0,07.6,0000.0,0009.09,0002.57,0001.74
